Location: Galahad
(52.5136°N, 111.9273°W)
Time: 05:24:33
(UTC+00:00)

ISS - Visible Passes

Search period start: 28 November 2021 00:00
Search period end: 08 December 2021 00:00
Orbit: 417 x 423 km, 51.6° (Epoch: 28 November)

Date Brightness Start Highest point End Pass type
(mag) Time Alt. Az. Time Alt. Az. Time Alt. Az.
28 Nov -3.8 01:23:32 10° W 01:26:57 77° S 01:27:25 61° ESE visible
28 Nov -0.1 03:00:21 10° W 03:00:24 10° W 03:00:24 10° W visible
29 Nov -3.6 00:36:25 10° WSW 00:39:48 71° S 00:42:07 19° E visible
29 Nov -1.8 02:13:10 10° W 02:15:06 31° W 02:15:06 31° W visible
30 Nov -3.8 01:26:00 10° W 01:29:24 76° S 01:29:49 64° SE visible
01 Dec -3.7 00:38:49 10° W 00:42:13 79° S 00:44:32 19° E visible
01 Dec -1.7 02:15:38 10° W 02:17:32 28° WSW 02:17:32 28° WSW visible
01 Dec -3.6 23:51:37 10° W 23:55:02 77° S 23:58:26 10° E visible
02 Dec -3.3 01:28:25 10° W 01:31:46 57° SSW 01:32:18 50° SSE visible
03 Dec -3.5 00:41:13 10° W 00:44:36 68° S 00:47:08 16° ESE visible
03 Dec -1.4 02:18:11 10° W 02:20:07 23° WSW 02:20:07 23° WSW visible
03 Dec -3.5 23:53:58 10° W 23:57:22 75° S 00:00:46 10° E visible
04 Dec -2.4 01:30:51 10° W 01:33:59 35° SSW 01:35:03 27° SSE visible
05 Dec -2.7 00:43:33 10° W 00:46:50 45° SSW 00:50:06 10° SE visible
05 Dec -0.9 02:21:15 10° WSW 02:23:03 14° SW 02:23:07 14° SW visible
05 Dec -3.0 23:56:17 10° W 23:59:37 57° SSW 00:02:58 10° ESE visible
06 Dec -1.2 01:33:30 10° W 01:36:00 19° SW 01:38:22 11° S visible
07 Dec -1.6 00:46:00 10° W 00:48:53 26° SSW 00:51:46 10° SSE visible
